Regional Weather Roundup
Issued by NWS Columbia, SC

Home | Current Version | Previous Version | Text Only | Print | Product List | Glossary On
Versions: 1 2 3 4 5 6 7 8 9 10 11 12 13 14 15 16 17 18 19 20 21 22 23 24 25 26 27 28 29 30 31 32 33 34 35 36 37 38 39 40 41 42 43 44 45 46 47 48 49 50
000
ASUS42 KCAE 030210
RWRCAE
REGIONAL WEATHER ROUNDUP
NATIONAL WEATHER SERVICE COLUMBIA SC
1000 PM EDT TUE SEP 02 2014

NOTE: "FAIR" INDICATES FEW OR NO CLOUDS BELOW 12,000 FEET WITH NO
SIGNIFICANT WEATHER AND/OR OBSTRUCTIONS TO VISIBILITY.

NOT ALL STATIONS ARE QUALITY CONTROLLED BY THE NATIONAL
WEATHER SERVICE. USE DATA WITH CAUTION...ESPECIALLY
DEWPOINT OBSERVATIONS.

SCZ001>056-GAZ040-063>065-077-030300-
...UPSTATE SOUTH CAROLINA...

CITY           SKY/WX    TMP DP  RH WIND       PRES   REMARKS
ANDERSON       MOCLDY    76  70  82 S13G24    30.06R
LIBERTY        FAIR      78  32  18 SE12G17   30.05R
SPARTANBURG    FAIR      81  72  74 SW5       30.04R
CLEMSON        CLOUDY    81  72  74 SE6       30.05R
GREENVILLE     PTCLDY    81  68  64 S12       30.06R
GREENWOOD      LGT RAIN  73  69  87 SW17G25   30.09R
GREER          PTCLDY    79  69  71 S12G21    30.04R
ROCK HILL      CLEAR     76  69  79 SW6       30.04R
LAURENS        MOCLDY    77  66  69 SW10G16   30.08R


...CENTRAL SOUTH CAROLINA...

CITY           SKY/WX    TMP DP  RH WIND       PRES   REMARKS
COLUMBIA APT   MOCLDY    76  72  87 CALM      30.02R
COLUMBIA OWENS MOCLDY    75  72  90 CALM      30.03R
DARLINGTON     CLOUDY    75  70  83 W5        30.03R
FLORENCE       CLOUDY    80  70  71 SW5       30.02R
MCENTIRE ANGB  MOCLDY    74  72  93 SW6       30.02R
ORANGEBURG     CLOUDY    74  71  91 S8        30.00F
SUMTER SHAW    CLOUDY    77  71  82 S7        29.99R
NEWBERRY       FAIR      73  73 100 SW8       30.07R
AIKEN          FAIR      73  73 100 S7        30.08R
BARNWELL       FAIR      75  72  88 S3        30.04S
MANNING        FAIR      79  75  89 CALM      30.01S
CAMDEN         FAIR      73  72  94 CALM      30.02R
LANCASTER      FAIR      75  72  88 W3        30.02R
WINNSBORO      FAIR      72  70  94 SW3       30.01S


...EASTERN AND COASTAL SOUTH CAROLINA...

CITY           SKY/WX    TMP DP  RH WIND       PRES   REMARKS
MYRTLE BEACH   PTCLDY    82  73  74 S13       30.02S
N MYRTLE BCH   MOCLDY    83  75  77 S13       30.01F
CONWAY         FAIR      79  79 100 CALM      30.03R
MARION         FAIR      79  73  83 S5        30.02R
HARTSVILLE     FAIR      73  72  94 CALM      30.04R
FLORENCE       CLOUDY    80  70  71 SW5       30.02R
DARLINGTON     CLOUDY    75  70  83 W5        30.03R
CHARLESTON APT PTCLDY    81  76  84 S3        30.03R
MOUNT PLEASANT FAIR      79  75  89 CALM      30.03S
WALTERBORO     CLOUDY    75 N/A N/A S3        30.03S
BEAUFORT       CLOUDY    77  75  93 CALM      30.03S


...EASTERN GEORGIA...

CITY           SKY/WX    TMP DP  RH WIND       PRES   REMARKS
AUGUSTA BUSH F PTCLDY    73  71  93 E3        30.04R
AUGUSTA DANIEL PTCLDY    75  72  90 SW3       30.05R
THOMSON        PTCLDY    78  74  89 CALM      30.09R
WASHINGTON     TSTM      81  79  94 W8        30.06R
CLAXTON        FAIR      73  73 100 CALM      30.05R
SYLVANIA       CLOUDY    72  71  97 NW3       30.05S
STATESBORO     CLOUDY    73  73 100 S3        30.03F
SAVANNAH       CLOUDY    76  73  91 CALM      30.04F


...SOUTHERN NORTH CAROLINA...

CITY           SKY/WX    TMP DP  RH WIND       PRES   REMARKS
CHARLOTTE      PTCLDY    78  68  71 SW5       30.04R
MONROE         PTCLDY    77  68  73 SW8       30.01R
WADESBORO      MOCLDY    75  72  91 CALM      30.01R
ROCKINGHAM     MOCLDY    75  71  87 CALM      30.02R
RUTHERFORDTON  PTCLDY    77  71  81 S3        30.06R
ASHEVILLE      MOCLDY    74  71  91 SE5       30.10R

$$


USA.gov is the U.S. government's official web portal to all federal, state and local government web resources and services.